Zurück zum Katalog

THORAD AGENA D DEB

AktivPO
NORAD 4868·DEBRIS·🇺🇸 United States

Gestartet Apr 8, 1970 von Vandenberg Space Force Base

Loading…

Nächste Überflüge

TLE

Source: Space-Track
1 04868U 70025EY  26221.16301613  .00000411  00000-0  30104-3 0  9991
2 04868  99.7164 296.7357 0053505 276.4618  83.0454 14.01569206842636

Verfolge THORAD AGENA D DEB in Echtzeit mit AllMySat

Download on the App Store